This is the latest recevied weather packets stored in our database for station/object N0HOT. If no packets are shown the sender has not sent any weather packets the latest 10 day(s).
| Time | Temp. | Humidity | Pressure | Rain* | Wind** | Luminosity | Snow |
|---|---|---|---|---|---|---|---|
| 1777055575 | 15.56° C | 50% | 1008.7 hPa | 0 mm | - | 703 W/m² | - |
| 1777055275 | 15° C | 53% | 1008.7 hPa | 0 mm | - | 681 W/m² | - |
| 1777054974 | 15° C | 54% | 1008.7 hPa | 0 mm | - | 675 W/m² | - |
| 1777054670 | 15° C | 52% | 1008.7 hPa | 0 mm | - | 704 W/m² | - |
| 1777054367 | 15° C | 52% | 1008.7 hPa | 0 mm | - | 721 W/m² | - |
| 1777054066 | 15° C | 52% | 1008.7 hPa | 0 mm | - | 747 W/m² | - |
| 1777053761 | 15° C | 52% | 1008.7 hPa | 0 mm | - | 755 W/m² | - |
| 1777053460 | 15° C | 53% | 1008.7 hPa | 0 mm | - | 766 W/m² | - |
| 1777053156 | 14.44° C | 53% | 1008.7 hPa | 0 mm | - | 739 W/m² | - |
| 1777052853 | 14.44° C | 53% | 1008.7 hPa | 0 mm | - | 747 W/m² | - |
| 1777052547 | 15° C | 54% | 1008.7 hPa | 0 mm | - | 767 W/m² | - |
| 1777052244 | 15° C | 54% | 1008.7 hPa | 0 mm | - | 770 W/m² | - |
| 1777051940 | 15° C | 53% | 1008.3 hPa | 0 mm | - | 742 W/m² | - |
| 1777051637 | 15° C | 55% | 1008.7 hPa | 0 mm | - | 731 W/m² | - |
| 1777051333 | 15° C | 53% | 1008.3 hPa | 0 mm | - | 770 W/m² | - |
| 1777051029 | 15° C | 54% | 1008.3 hPa | 0 mm | - | 783 W/m² | - |
| 1777050724 | 14.44° C | 54% | 1008.7 hPa | 0 mm | - | 771 W/m² | - |
| 1777050420 | 14.44° C | 53% | 1008.3 hPa | 0 mm | - | 747 W/m² | - |
| 1777050114 | 14.44° C | 54% | 1008.3 hPa | 0 mm | - | 734 W/m² | - |
| 1777049809 | 13.89° C | 53% | 1008.3 hPa | 0 mm | - | 751 W/m² | - |
| 1777049505 | 13.89° C | 54% | 1008.3 hPa | 0 mm | - | 758 W/m² | - |
| 1777049204 | 13.89° C | 54% | 1008.3 hPa | 0 mm | - | 747 W/m² | - |
| 1777048898 | 13.89° C | 55% | 1008.7 hPa | 0 mm | - | 751 W/m² | - |
| 1777048594 | 13.89° C | 54% | 1008.7 hPa | 0 mm | - | 774 W/m² | - |
| 1777048288 | 13.33° C | 55% | 1008.3 hPa | 0 mm | - | 815 W/m² | - |
* Rain latest hour (hover to see other rain measurements)
** Current wind speed in m/s (hover to see current wind gust speed)